Location: Unspecified
(51.5147°N, 7.4673°E)
Time: 08:25:13
(UTC+01:00)

Vanguard 1 Rocket - Pass Details

Date: 19 February 2026
Orbit: 653 x 4214 km, 34.3° (Epoch: 7 March)

Event Time Altitude Azimuth Distance (km) Brightness Sun altitude
Rises 18:54:19 0° 269° (W) 6,057 13.9 -10.3°
Reaches altitude 10° 18:58:29 10° 259° (W) 5,510 12.9 -10.9°
Maximum altitude 19:12:47 30° 208° (SSW) 5,215 11.5 -13.1°
Drops below altitude 10° 19:32:11 10° 158° (SSE) 7,408 11.8 -16.1°
Sets 19:39:17 0° 150° (SSE) 8,389 12.0 -17.2°
